Stations météo

réclame
Mon MeteoGroup
Badajoz/Talavera La Real, Espagne (8330): Température de l'air & dewpoint: 16.06.2018 19:00:00 - 22.06.2018 19:00:00 (CEST)Badajoz/Talavera La Real, Espagne (8330): Vitesse du vent: 16.06.2018 19:00:00 - 22.06.2018 19:00:00 (CEST)Badajoz/Talavera La Real, Espagne (8330): Direction du vent: 16.06.2018 19:00:00 - 22.06.2018 19:00:00 (CEST)Badajoz/Talavera La Real, Espagne (8330): reduced air pressure: 16.06.2018 19:00:00 - 22.06.2018 19:00:00 (CEST)Badajoz/Talavera La Real, Espagne (8330): visibility: 16.06.2018 19:00:00 - 22.06.2018 19:00:00 (CEST)Badajoz/Talavera La Real, Espagne (8330): Quantités de précipitations: 16.06.2018 19:00:00 - 22.06.2018 19:00:00 (CEST)
Date & Time tt [°C] td [°C] ff [km/h] ff [knt] dd ppp [hPa] vv [km] rr [mm]
22.06.2018 19:00:00 - - - - - - - -
22.06.2018 18:00:00 34,3 13,7 9 5 NE 1012,4 - 0,0
22.06.2018 17:00:00 34,3 13,2 9 5 E 1013,0 20 -
22.06.2018 16:00:00 33,5 11,9 9 5 E 1013,9 - 0,0
22.06.2018 15:00:00 32,4 14,1 8 4 WNW 1014,6 - 0,0
22.06.2018 14:00:00 30,3 14,4 8 4 NNE 1015,2 20 -
22.06.2018 13:00:00 29,6 15,7 5 3 ENE 1015,8 - 0,0
22.06.2018 12:00:00 27,6 15,9 9 5 E 1016,3 - 0,0
22.06.2018 11:00:00 25,6 15,9 9 5 ENE 1016,3 20 -
22.06.2018 10:00:00 24,3 15,5 8 4 N 1016,3 - 0,0
22.06.2018 09:00:00 22,2 15,8 8 4 WSW 1016,9 - 0,0
22.06.2018 08:00:00 21,4 15,5 5 3 SW 1016,8 20 -
22.06.2018 07:00:00 21,1 15,0 5 3 SW 1016,5 - 0,0
22.06.2018 06:00:00 21,6 14,0 8 4 WSW 1015,7 - 0,0
22.06.2018 05:00:00 22,3 13,6 8 4 SSW 1015,7 - -
22.06.2018 04:00:00 22,5 13,8 5 3 WSW 1015,5 - 0,0
22.06.2018 03:00:00 23,0 14,3 11 6 W 1015,5 - 0,0
22.06.2018 02:00:00 23,5 14,8 16 9 WNW 1015,3 - -
22.06.2018 01:00:00 24,6 15,0 26 14 WNW 1015,3 - 0,0
22.06.2018 00:00:00 25,7 17,1 21 11 WNW 1015,4 - 0,0
21.06.2018 23:00:00 25,7 18,1 21 11 WNW 1014,9 - -
21.06.2018 22:00:00 28,1 15,0 21 11 W 1014,2 - 0,0
21.06.2018 21:00:00 32,1 11,8 5 3 NW 1013,2 - 0,0
21.06.2018 20:00:00 32,7 11,8 8 4 N 1013,0 20 -
21.06.2018 19:00:00 33,5 11,4 8 4 NNW 1012,8 - 0,0
21.06.2018 18:00:00 33,3 11,8 8 4 N 1013,4 - 0,0
21.06.2018 17:00:00 32,8 12,4 9 5 N 1014,2 20 -
21.06.2018 16:00:00 33,0 13,6 4 2 ENE 1014,6 - 0,0
21.06.2018 15:00:00 31,0 14,2 9 5 ENE 1015,5 - 0,0
21.06.2018 14:00:00 29,7 14,3 8 4 NNE 1015,8 20 -
21.06.2018 13:00:00 28,5 13,6 22 12 NNW 1015,7 - 0,0
21.06.2018 12:00:00 26,6 13,7 24 13 NW 1016,1 - 0,0
21.06.2018 11:00:00 25,1 13,3 15 8 WNW 1017,4 20 -
21.06.2018 10:00:00 24,1 13,6 26 14 WNW 1016,5 - 0,0
21.06.2018 09:00:00 23,5 15,3 13 7 W 1016,6 - 0,0
21.06.2018 08:00:00 22,6 15,7 13 7 W 1016,1 20 -
21.06.2018 07:00:00 22,0 15,8 15 8 W 1015,1 - 0,0
21.06.2018 06:00:00 22,4 16,0 11 6 WSW 1014,5 - 0,0
21.06.2018 05:00:00 22,7 16,0 5 3 SW 1014,2 - -
21.06.2018 04:00:00 23,0 16,1 8 4 W 1013,9 - 0,0
21.06.2018 03:00:00 23,3 16,8 9 5 W 1014,3 - 0,0
21.06.2018 02:00:00 25,1 16,8 8 4 W 1014,6 - -
21.06.2018 01:00:00 25,8 16,6 11 6 W 1015,2 - 0,0
21.06.2018 00:00:00 26,4 16,3 11 6 WNW 1015,2 - 0,0
20.06.2018 23:00:00 28,0 16,0 15 8 WNW 1014,7 - -
20.06.2018 22:00:00 29,3 14,7 22 12 WNW 1014,3 - 0,0
20.06.2018 21:00:00 31,7 12,0 15 8 W 1013,2 - 0,0
20.06.2018 20:00:00 33,2 11,1 15 8 WSW 1012,9 25 -
20.06.2018 19:00:00 33,6 11,4 16 9 WSW 1012,8 - 0,0
20.06.2018 18:00:00 33,6 12,6 15 8 WSW 1013,0 - 0,0
20.06.2018 17:00:00 33,3 13,4 11 6 WSW 1013,2 15 -
20.06.2018 16:00:00 35,9 13,4 5 3 N 1013,4 - 0,0
20.06.2018 15:00:00 34,4 12,1 5 3 W 1014,1 - 0,0
20.06.2018 14:00:00 32,6 13,3 8 4 E 1014,8 25 -
20.06.2018 13:00:00 31,0 14,6 9 5 E 1015,4 - 0,0
20.06.2018 12:00:00 29,6 15,3 4 2 N 1015,7 - 0,0
20.06.2018 11:00:00 27,3 15,3 8 4 S 1016,3 25 -
20.06.2018 10:00:00 25,2 16,1 5 3 WSW 1016,6 - 0,0
20.06.2018 09:00:00 23,2 16,7 8 4 W 1016,5 - 0,0
20.06.2018 08:00:00 20,6 16,4 4 2 W 1016,4 25 -
20.06.2018 07:00:00 20,7 15,7 4 2 WSW 1015,9 - 0,0
20.06.2018 06:00:00 21,1 16,1 5 3 WSW 1015,4 - 0,0
20.06.2018 05:00:00 21,1 16,3 5 3 W 1015,0 - -
20.06.2018 04:00:00 22,6 16,4 5 3 W 1015,0 - 0,0
20.06.2018 03:00:00 23,3 15,4 8 4 W 1015,0 - 0,0
20.06.2018 02:00:00 25,3 14,4 5 3 WSW 1015,2 - -
20.06.2018 01:00:00 27,1 13,1 5 3 WSW 1015,1 - 0,0
20.06.2018 00:00:00 28,8 12,7 8 4 WSW 1014,7 - 0,0
19.06.2018 23:00:00 30,6 12,5 5 3 SW 1014,1 - -
19.06.2018 22:00:00 33,4 14,9 4 2 SW 1013,0 - 0,0
19.06.2018 21:00:00 34,7 12,4 4 2 N 1012,6 - 0,0
19.06.2018 20:00:00 35,2 12,8 9 5 N 1012,9 - -
19.06.2018 19:00:00 35,3 12,3 9 5 N 1013,0 - 0,0
19.06.2018 18:00:00 35,2 12,8 11 6 N 1013,4 - 0,0
19.06.2018 17:00:00 34,9 12,5 11 6 N 1013,9 20 -
19.06.2018 16:00:00 34,9 12,0 11 6 NNE 1014,5 - 0,0
19.06.2018 15:00:00 33,6 11,4 13 7 N 1015,2 - 0,0
19.06.2018 14:00:00 33,1 11,0 5 3 W 1016,0 25 -
19.06.2018 13:00:00 31,3 11,7 8 4 W 1016,6 - 0,0
19.06.2018 12:00:00 29,6 11,6 4 2 S 1017,1 - 0,0
19.06.2018 11:00:00 27,0 10,7 8 4 NNW 1017,6 25 -
19.06.2018 10:00:00 24,9 13,1 5 3 N 1018,0 - 0,0
19.06.2018 09:00:00 23,1 13,3 4 2 NNW 1017,9 - 0,0
19.06.2018 08:00:00 20,2 13,9 0 0 N 1017,9 25 -
19.06.2018 07:00:00 19,0 13,4 4 2 E 1017,6 - 0,0
19.06.2018 06:00:00 20,1 12,6 4 2 W 1016,9 - 0,0
19.06.2018 05:00:00 21,2 12,9 4 2 NNW 1016,6 - -
19.06.2018 04:00:00 22,2 12,7 4 2 WSW 1016,2 - 0,0
19.06.2018 03:00:00 23,0 12,9 4 2 WNW 1016,3 - 0,0
19.06.2018 02:00:00 25,0 12,9 4 2 WSW 1016,3 - -
19.06.2018 01:00:00 26,4 13,5 8 4 WSW 1016,2 - 0,0
19.06.2018 00:00:00 27,3 8,7 9 5 SSW 1016,1 - 0,0
18.06.2018 23:00:00 27,5 9,8 9 5 NE 1015,2 - -
18.06.2018 22:00:00 29,7 11,2 11 6 NE 1014,5 - 0,0
18.06.2018 21:00:00 33,8 11,6 11 6 E 1014,1 - 0,0
18.06.2018 20:00:00 35,9 8,7 9 5 E 1013,9 30 -
18.06.2018 19:00:00 37,0 7,9 16 9 ENE 1014,1 - 0,0
18.06.2018 18:00:00 37,3 8,2 13 7 ENE 1014,6 - 0,0
18.06.2018 17:00:00 37,8 8,6 13 7 E 1015,1 30 -
18.06.2018 16:00:00 37,8 8,6 21 11 ENE 1015,6 - 0,0
18.06.2018 15:00:00 38,0 8,7 18 10 E 1016,1 - 0,0
18.06.2018 14:00:00 36,2 10,4 21 11 ENE 1016,8 30 -
18.06.2018 13:00:00 34,5 10,4 22 12 ENE 1017,2 - 0,0
18.06.2018 12:00:00 33,2 9,9 24 13 E 1017,7 - 0,0
18.06.2018 11:00:00 31,2 9,4 21 11 E 1017,9 60 -
18.06.2018 10:00:00 26,8 11,7 13 7 NE 1018,3 - 0,0
18.06.2018 09:00:00 22,5 11,9 9 5 NE 1018,4 - 0,0
18.06.2018 08:00:00 20,7 12,1 5 3 ENE 1018,2 30 -
18.06.2018 07:00:00 20,8 12,2 2 1 W 1017,9 - 0,0
18.06.2018 06:00:00 21,6 11,9 2 1 N 1017,6 - 0,0
18.06.2018 05:00:00 22,9 11,6 2 1 NNW 1017,4 - -
18.06.2018 04:00:00 24,1 11,1 5 3 WNW 1017,7 - 0,0
18.06.2018 03:00:00 25,0 12,2 5 3 W 1017,7 - 0,0
18.06.2018 02:00:00 25,6 12,4 2 1 WSW 1017,5 - -
18.06.2018 01:00:00 26,9 10,6 4 2 NW 1017,6 - 0,0
18.06.2018 00:00:00 27,5 9,8 9 5 N 1017,2 - 0,0
17.06.2018 23:00:00 29,8 9,3 11 6 N 1016,5 - -
17.06.2018 22:00:00 31,7 9,8 13 7 N 1015,8 - 0,0
17.06.2018 21:00:00 34,8 11,2 13 7 N 1015,2 - 0,0
17.06.2018 20:00:00 37,3 10,6 8 4 NW 1014,6 30 -
17.06.2018 19:00:00 38,3 10,6 4 2 WSW 1014,5 - 0,0
17.06.2018 18:00:00 37,8 9,4 5 3 SE 1014,6 - 0,0
17.06.2018 17:00:00 37,9 10,3 9 5 E 1014,9 - -
17.06.2018 16:00:00 37,1 9,6 8 4 NNE 1015,3 - 0,0
17.06.2018 15:00:00 36,6 10,0 8 4 NE 1015,6 - 0,0
17.06.2018 14:00:00 35,3 11,0 9 5 NE 1016,0 30 -
17.06.2018 13:00:00 33,1 11,6 8 4 NNE 1016,5 - 0,0
17.06.2018 12:00:00 31,8 12,6 11 6 E 1016,6 - 0,0
17.06.2018 11:00:00 28,6 12,1 8 4 ENE 1016,8 30 -
17.06.2018 10:00:00 25,6 12,1 5 3 NNE 1016,8 - 0,0
17.06.2018 09:00:00 23,4 11,4 5 3 NW 1016,8 - 0,0
17.06.2018 08:00:00 21,8 12,6 4 2 W 1016,3 30 -
17.06.2018 07:00:00 20,5 12,5 4 2 W 1015,9 - 0,0
17.06.2018 06:00:00 19,9 12,9 4 2 WSW 1015,6 - 0,0
17.06.2018 05:00:00 21,7 12,5 5 3 WSW 1015,4 - -
17.06.2018 04:00:00 22,3 12,3 5 3 WSW 1015,2 - 0,0
17.06.2018 03:00:00 22,7 12,3 5 3 WSW 1015,0 - 0,0
17.06.2018 02:00:00 23,3 13,7 8 4 W 1014,8 - -
17.06.2018 01:00:00 24,6 14,7 8 4 W 1014,5 - 0,0
17.06.2018 00:00:00 26,1 15,8 9 5 W 1013,9 - 0,0
16.06.2018 23:00:00 28,6 13,3 11 6 W 1012,9 - -
16.06.2018 22:00:00 30,3 12,7 11 6 N 1011,8 - 0,0
16.06.2018 21:00:00 33,9 12,3 9 5 NNW 1011,1 - 0,0
16.06.2018 20:00:00 35,0 12,0 11 6 N 1011,0 30 -
16.06.2018 19:00:00 35,7 13,2 9 5 W 1010,9 - 0,0

tt = Température de l'air
td = dewpoint
ff = Vitesse du vent
dd = Direction du vent
ppp = reduced air pressure
vv = visibility
rr = Quantités de précipitations

stations d'obs. à proximité